Regional Weather Roundup
Issued by NWS Grand Forks, ND

Home | Current Version | Previous Version | Text Only | Print | Product List | Glossary On
Versions: 1 2 3 4 5 6 7 8 9 10 11 12 13 14 15 16 17 18 19 20 21 22 23 24 25 26 27 28 29 30 31 32 33 34 35 36 37 38 39 40 41 42 43 44 45 46 47 48 49 50
000
ASUS43 KFGF 171810
RWRFGF
PRAIRIE TO PINES  WEATHER ROUNDUP
NATIONAL WEATHER SERVICE EASTERN NORTH DAKOTA/GRAND FORKS ND
100 PM CDT WED SEP 17 2014

 **SATELLITE DATA USED TO AUGMENT SKY COVER AT AUTOMATED STATIONS**
 *****  WEATHER ACROSS EASTERN NORTH DAKOTA  *****

CITY           SKY/WX    TMP DP  RH WIND       PRES   REMARKS
GRAND FORKS    FAIR      62  52  69 N14       30.00S
6HR MIN TEMP:  41; 6HR MAX TEMP:  62;

GRAND FRKS AFB PTSUNNY   57  52  82 N13       30.03R
GRAND FRKS NWS   N/A     64 N/A N/A N10         N/A
DEVILS LAKE    FAIR      57  45  62 NE9       30.02R
6HR MIN TEMP:  45; 6HR MAX TEMP:  57;

FARGO          FAIR      70  50  49 VRB6      29.96S
WAHPETON ARPT  FAIR      72  50  46 NE7       29.96S
$$

 ***** WEATHER ACROSS CENTRAL AND WESTERN NORTH DAKOTA  *****

CITY           SKY/WX    TMP DP  RH WIND       PRES   REMARKS
BISMARCK       MOSUNNY   73  50  44 E8        29.98F
6HR MIN TEMP:  35; 6HR MAX TEMP:  73;

MINOT          FAIR      66  47  50 E7        29.99F
6HR MIN TEMP:  42; 6HR MAX TEMP:  66;

JAMESTOWN      FAIR      70  50  49 CALM      29.97F
6HR MIN TEMP:  42; 6HR MAX TEMP:  71;

MINOT AFB      FAIR      65  49  56 E8        29.99F
GARRISON         N/A     70  49  47 E6        29.98F
WILLISTON      PTSUNNY   72  43  35 S9        29.95F
6HR MIN TEMP:  36; 6HR MAX TEMP:  72;

DICKINSON      CLOUDY    67  44  43 E12       29.97S
6HR MIN TEMP:  42; 6HR MAX TEMP:  68;

HETTINGER      PTSUNNY   70  49  47 SE7       29.98S
6HR MIN TEMP:  37; 6HR MAX TEMP:  70;

$$

 *****  OTHER AIRPORT OBSERVATIONS IN OUR AREA  *****

CITY           SKY/WX    TMP DP  RH WIND       PRES   REMARKS
WALHALLA         N/A     48  45  87 N9        30.08S
GRAFTON AIRPOR CLOUDY    52  48  87 N13       30.04R
VALLEY CITY AR FAIR      68  48  49 NE8       29.98S
CANDO          FAIR      57  46  67 NE10      30.04S
CAVALIER APRT  CLOUDY    48  45  87 N10G16    30.07R
GWINNER        CLEAR     70  48  46 N10       29.98S
ROLLA          CLOUDY    50  45  81 NE13      30.07S
 ***** THE ABOVE OBSERVATIONS ARE NON NWS ARE NOT QUALITY
       CONTROLLED AND MAY MIS-REPORT RAIN FOR SNOW...
$$

  *****  WEATHER ACROSS NORTHERN MINNESOTA  *****

CITY           SKY/WX    TMP DP  RH WIND       PRES   REMARKS
FLAG ISLAND    CLOUDY    46  37  71 NE10G17   30.06F
WARROAD        CLOUDY    48  43  81 NE12G17   30.07R
ROSEAU         FAIR      54  45  71 E16       30.05R
HALLOCK        PTSUNNY   57  46  67 N6        30.04R
THF RVR FALLS  FAIR      61  50  67 NE12      30.00R
6HR MIN TEMP:  43; 6HR MAX TEMP:  61;

BAUDETTE       PTSUNNY   55  43  63 NE10      30.03S
6HR MIN TEMP:  49; 6HR MAX TEMP:  56;

WASKISH        PTSUNNY   59  50  72 NE3       30.01R
CROOKSTON      FAIR      64  52  63 NE9       29.99S
$$
  *****  WEATHER ACROSS CENTRAL AND WEST MINNESOTA  *****

CITY           SKY/WX    TMP DP  RH WIND       PRES   REMARKS
FOSSTON        FAIR      70  48  46 N8        29.98R
BEMIDJI        FAIR      65  49  54 N8        29.97S
PARK RAPIDS    FAIR      70  46  42 N8        29.95F
6HR MIN TEMP:  39; 6HR MAX TEMP:  70;

ELBOW LAKE     FAIR      69  55  62 N6        29.95F
6HR MIN TEMP:  49; 6HR MAX TEMP:  69;

WADENA         FAIR      68  54  60 N7        29.95S
DETROIT LAKES  FAIR      68  46  45 N3        29.98R
MOORHEAD       FAIR      70  48  46 NW6       29.97R
FERGUS FALLS   FAIR      70  48  46 E6        29.95S
MORRIS MN      FAIR      73  55  53 SE6       29.94S
STAPLES        FAIR      68  52  56 NE6       29.96S
$$
  *****  WEATHER ELSEWHERE ACROSS MINNESOTA  *****

CITY           SKY/WX    TMP DP  RH WIND       PRES   REMARKS
DULUTH         FAIR      69  47  45 N8        29.94S
6HR MIN TEMP:  47; 6HR MAX TEMP:  70;

INTRNTL FALLS  CLOUDY    51  42  71 NE12      30.04R
6HR MIN TEMP:  49; 6HR MAX TEMP:  53; 6HR PCP: TRACE;

ELY            CLOUDY    54  46  76 NE7       29.99R
CLOQUET        FAIR      68  46  45 CALM      29.95S
WHEATON        FAIR      66  52  59 NE5       29.96F
BRAINERD       FAIR      67  52  58 CALM      29.96S
6HR MIN TEMP:  41; 6HR MAX TEMP:  67;

HIBBING        PTSUNNY   66  49  54 NE6       29.97R
6HR MIN TEMP:  35; 6HR MAX TEMP:  66;

ALEXANDRIA     FAIR      69  56  62 E8        29.97R
6HR MIN TEMP:  47; 6HR MAX TEMP:  70;

SAINT CLOUD    FAIR      72  53  51 CALM      29.95S
6HR MIN TEMP:  47; 6HR MAX TEMP:  73;

MINNEAPOLIS    FAIR      69  50  50 S7        29.95S
6HR MIN TEMP:  56; 6HR MAX TEMP:  71;

$$

  *****  WEATHER ACROSS SOUTH DAKOTA  *****

CITY           SKY/WX    TMP DP  RH WIND       PRES   REMARKS
SIOUX FALLS    FAIR      73  58  59 NE5       29.93F
6HR MIN TEMP:  48; 6HR MAX TEMP:  73;

BROOKINGS      NOT AVBL
WATERTOWN      FAIR      71  52  50 E9        29.95S
6HR MIN TEMP:  46; 6HR MAX TEMP:  72;

HURON          SUNNY     75  55  49 NE7       29.93F
6HR MIN TEMP:  45; 6HR MAX TEMP:  75;

SISSETON         N/A     71  52  50 N9        29.95S
ABERDEEN       SUNNY     69  50  50 NE13      29.96S
6HR MIN TEMP:  39; 6HR MAX TEMP:  70;

MITCHELL       SUNNY     73  60  63 VRB3      29.94S
PIERRE         SUNNY     77  51  40 NE8       29.92F
6HR MIN TEMP:  46; 6HR MAX TEMP:  77;

MOBRIDGE       MOSUNNY   73  52  47 SE12      29.94S
RAPID CITY     MOSUNNY   73  49  42 E5        29.97F
6HR MIN TEMP:  50; 6HR MAX TEMP:  75;

$$

  *****  SOME WEATHER IN NEARBY STATES *****

CITY           SKY/WX    TMP DP  RH WIND       PRES   REMARKS
GLASGOW MT     SUNNY     72  45  37 SE15      29.89S
6HR MIN TEMP:  50; 6HR MAX TEMP:  72;

GREAT FALLS MT MOSUNNY   76  50  40 S6        29.89F
6HR MIN TEMP:  54; 6HR MAX TEMP:  76; 6HR PCP: TRACE;

CHEYENNE WY    SUNNY     82  36  19 N8        30.12F
6HR MIN TEMP:  50; 6HR MAX TEMP:  83;

SCOTTSBLUFF NE SUNNY     83  45  26 VRB3      29.99F
6HR MIN TEMP:  48; 6HR MAX TEMP:  83;

OMAHA NE       FAIR      75  59  57 E5        29.93F
6HR MIN TEMP:  57; 6HR MAX TEMP:  75;

DES MOINES IA  FAIR      73  56  54 VRB3      29.96S
6HR MIN TEMP:  57; 6HR MAX TEMP:  74;

DAVENPORT IA   CLOUDY    66  51  58 S7        30.02S
6HR MIN TEMP:  46; 6HR MAX TEMP:  66;

CHICAGO IL     PTSUNNY   68  44  42 NW5       30.02F
6HR MIN TEMP:  48; 6HR MAX TEMP:  68;

EAU CLAIRE WI  FAIR      69  51  52 VRB5      29.96S
6HR MIN TEMP:  45; 6HR MAX TEMP:  69;

LA CROSSE WI   PTSUNNY   68  52  56 VRB5      29.98F
6HR MIN TEMP:  50; 6HR MAX TEMP:  69;

$$

  *****  SOME NATIONAL WEATHER *****

CITY           SKY/WX    TMP DP  RH WIND       PRES   REMARKS
LA GUARDIA NY  MOSUNNY   70  41  34 NW9       29.99F
6HR MIN TEMP:  62; 6HR MAX TEMP:  71;

RALEIGH NC     PTSUNNY   76  61  59 E5        29.95F
6HR MIN TEMP:  67; 6HR MAX TEMP:  77;

ATLANTA GA     MOSUNNY   83  63  50 W6        29.95F
6HR MIN TEMP:  67; 6HR MAX TEMP:  83;

NEW ORLEANS LA PTSUNNY   86  72  62 NE10      29.96F HX  92
6HR MIN TEMP:  73; 6HR MAX TEMP:  87;

OKLAHOMA CITY  PTSUNNY   90  66  45 SW15      29.94F HX  92
6HR MIN TEMP:  69; 6HR MAX TEMP:  90;

ALBUQUERQUE NM LGT RAIN  64  59  83 CALM      30.20S
6HR MIN TEMP:  61; 6HR MAX TEMP:  64; 6HR PCP:  0.11;

SALT LAKE CITY MOSUNNY   88  41  19 S13G21    29.97F
6HR MIN TEMP:  69; 6HR MAX TEMP:  88;

LOS ANGELES CA MOSUNNY   83  62  49 W9        29.77R
6HR MIN TEMP:  74; 6HR MAX TEMP:  87;

BOISE ID       CLOUDY    80  42  25 E5        29.87F


USA.gov is the U.S. government's official web portal to all federal, state and local government web resources and services.